Location: La Sioule Rivi�re
(46.3664°N, 3.3197°E)
Time: 12:59:47
(UTC+00:00)

NOSS 3-4 (A) - Pass Details

Date: 29 October 2020
Orbit: 885 x 1327 km, 63.4° (Epoch: 06 November)

Event Time Altitude Azimuth Distance (km) Brightness Sun altitude
Rises 17:52:23 0° 320° (NW) 3,751 7.1 -13.7°
Reaches altitude 10° 17:55:05 10° 328° (NNW) 2,860 6.3 -14.1°
Maximum altitude 18:01:27 40° 37° (NE) 1,608 4.3 -15.2°
Enters shadow 18:05:39 22° 92° (E) 2,316 4.8 -16.0°
